Location: Unspecified
(0.0000°N, 0.0000°E)
Time: 22:05:41
(UTC+00:00)

SR - Visible Passes

Search period start: 29 September 2016 00:00
Search period end: 09 October 2016 00:00
Orbit: 584 x 874 km, 66.7° (Epoch: 29 September)

Date Brightness Start Highest point End Pass type
(mag) Time Alt. Az. Time Alt. Az. Time Alt. Az.
29 Sep ? 18:41:17 10° NNW 18:46:31 83° ENE 18:52:11 10° SSE visible
30 Sep ? 19:35:46 10° WNW 19:39:14 17° WSW 19:42:52 10° SSW visible
01 Oct ? 18:44:53 10° NW 18:49:51 42° WSW 18:55:12 10° S visible
03 Oct ? 04:45:25 10° ESE 04:46:02 10° ESE 04:46:37 10° ESE visible
03 Oct ? 18:49:35 10° WNW 18:53:16 18° WSW 18:57:06 10° SSW visible
05 Oct ? 04:45:24 10° SSE 04:49:27 26° ESE 04:53:14 10° NE visible
07 Oct ? 04:47:59 10° SSW 04:52:46 71° ESE 04:57:11 10° NNE visible
08 Oct ? 03:59:32 10° SSE 04:03:27 25° ESE 04:07:07 10° ENE visible
